Date String (YYYY-MM-DD hh:mm:ss) UTC,Instrument flags,Ambient pressure (hPa),Sample flow (lpm),Bypass flow (lpm),Sample temperature (°C),Ambient temperature (°C),ASC tube jacket temperature (°C),LED temperature (°C),Box temperature (°C),Sample RH (%),Span deviation,Mass concentration (μg/m³),Mass concentration (μg/m³),Mass concentration (μg/m³)
DateTimeUTC,F1_M11,P_M11,Q1_M11,Q2_M11,T1_M11,T2_M11,T3_M11,T4_M11,T5_M11,U1_M11,ZSPAN_M11,X0_M11,X2_M11,X1_M11
2022-03-25 05:00:00,,0826.2,4.99,0.00,27.7,27.1,00.0,36.7,29.5,10.9,0000.0,0008.76,0003.22,0001.37
2022-03-25 05:01:00,,0826.1,5.01,0.00,27.7,27.0,00.0,36.7,29.5,10.9,0000.0,0008.55,0003.23,0001.38
2022-03-25 05:02:00,,0826.2,4.99,0.00,27.7,27.0,00.0,36.7,29.5,11.0,0000.0,0008.25,0003.23,0001.37
2022-03-25 05:03:00,,0826.1,5.00,0.00,27.7,27.0,00.0,36.7,29.5,11.0,0000.0,0008.08,0003.23,0001.35
2022-03-25 05:04:00,,0826.2,5.02,0.00,27.7,27.0,00.0,36.7,29.5,11.0,0000.0,0007.70,0003.24,0001.35
2022-03-25 05:05:00,,0826.2,4.99,0.00,27.7,27.0,00.0,36.7,29.5,11.0,0000.0,0007.79,0003.27,0001.35
2022-03-25 05:06:00,,0826.1,5.00,0.00,27.8,27.0,00.0,36.7,29.6,10.9,0000.0,0007.91,0003.30,0001.35
2022-03-25 05:07:00,,0826.2,5.00,0.00,27.8,27.1,00.0,36.7,29.6,10.9,0000.0,0007.78,0003.26,0001.32
2022-03-25 05:08:00,,0826.2,5.02,0.00,27.8,27.1,00.0,36.7,29.6,10.9,0000.0,0007.80,0003.28,0001.33
2022-03-25 05:09:00,,0826.2,5.01,0.00,27.8,27.0,00.0,36.7,29.6,10.6,0000.0,0008.11,0003.33,0001.34
2022-03-25 05:10:00,,0826.2,5.01,0.00,27.8,27.0,00.0,36.7,29.6,10.6,0000.0,0008.29,0003.37,0001.35
2022-03-25 05:11:00,,0826.2,5.00,0.00,27.8,27.0,00.0,36.7,29.6,10.8,0000.0,0008.36,0003.42,0001.37
2022-03-25 05:12:00,,0826.2,4.99,0.00,27.8,27.0,00.0,36.7,29.5,10.8,0000.0,0008.72,0003.43,0001.38
2022-03-25 05:13:00,,0826.2,5.02,0.00,27.8,27.0,00.0,36.8,29.5,10.8,0000.0,0009.27,0003.46,0001.39
2022-03-25 05:14:00,,0826.2,5.00,0.00,27.8,26.9,00.0,36.8,29.5,10.6,0000.0,0009.19,0003.46,0001.42
2022-03-25 05:15:00,,0826.2,4.99,0.00,27.7,26.9,00.0,36.8,29.5,10.6,0000.0,0009.16,0003.44,0001.41
2022-03-25 05:16:00,,0826.2,4.99,0.00,27.7,26.9,00.0,36.8,29.4,10.5,0000.0,0009.17,0003.42,0001.40
2022-03-25 05:17:00,,0826.2,5.01,0.00,27.7,26.9,00.0,36.8,29.4,10.6,0000.0,0009.30,0003.49,0001.42
2022-03-25 05:18:00,,0826.2,5.00,0.00,27.7,27.0,00.0,36.8,29.5,10.6,0000.0,0009.36,0003.50,0001.45
2022-03-25 05:19:00,,0826.3,5.00,0.00,27.7,27.0,00.0,36.8,29.5,10.7,0000.0,0009.85,0003.52,0001.47
2022-03-25 05:20:00,,0826.3,5.00,0.00,27.7,27.0,00.0,36.8,29.5,10.8,0000.0,0009.74,0003.53,0001.49
2022-03-25 05:21:00,,0826.3,5.00,0.00,27.7,27.0,00.0,36.8,29.5,10.8,0000.0,0009.72,0003.54,0001.50
2022-03-25 05:22:00,,0826.3,5.01,0.00,27.7,26.9,00.0,36.8,29.5,10.8,0000.0,0010.07,0003.54,0001.50
2022-03-25 05:23:00,,0826.4,5.00,0.00,27.7,26.9,00.0,36.8,29.5,10.7,0000.0,0010.39,0003.56,0001.50
2022-03-25 05:24:00,,0826.4,4.99,0.00,27.7,26.9,00.0,36.8,29.4,10.8,0000.0,0010.09,0003.61,0001.51
2022-03-25 05:25:00,,0826.2,5.02,0.00,27.7,26.8,00.0,36.7,29.4,10.6,0000.0,0010.15,0003.61,0001.50
2022-03-25 05:26:00,,0826.3,4.99,0.00,27.7,26.8,00.0,36.7,29.4,10.5,0000.0,0010.37,0003.69,0001.53
2022-03-25 05:27:00,,0826.3,4.99,0.00,27.7,26.8,00.0,36.7,29.4,10.6,0000.0,0010.44,0003.78,0001.57
2022-03-25 05:28:00,,0826.3,4.99,0.00,27.7,26.8,00.0,36.7,29.4,10.6,0000.0,0010.31,0003.74,0001.58
2022-03-25 05:29:00,,0826.3,5.00,0.00,27.7,26.9,00.0,36.7,29.4,10.6,0000.0,0010.16,0003.69,0001.56
2022-03-25 05:30:00,,0826.3,4.99,0.00,27.7,26.9,00.0,36.7,29.4,10.5,0000.0,0009.65,0003.68,0001.55
2022-03-25 05:31:00,,0826.4,4.99,0.00,27.7,26.9,00.0,36.7,29.4,10.5,0000.0,0009.67,0003.65,0001.54
2022-03-25 05:32:00,,0826.4,5.01,0.00,27.7,26.8,00.0,36.7,29.4,10.6,0000.0,0009.55,0003.64,0001.53
2022-03-25 05:33:00,,0826.5,5.01,0.00,27.7,26.8,00.0,36.7,29.4,10.7,0000.0,0009.27,0003.61,0001.52
2022-03-25 05:34:00,,0826.4,4.99,0.00,27.6,26.8,00.0,36.7,29.3,10.6,0000.0,0008.85,0003.62,0001.53
2022-03-25 05:35:00,,0826.4,4.98,0.00,27.6,26.8,00.0,36.7,29.3,10.5,0000.0,0008.85,0003.63,0001.54
2022-03-25 05:36:00,,0826.4,5.02,0.00,27.7,26.8,00.0,36.7,29.4,10.5,0000.0,0009.22,0003.61,0001.55
2022-03-25 05:37:00,,0826.4,5.00,0.00,27.7,26.8,00.0,36.7,29.4,10.6,0000.0,0009.18,0003.61,0001.54
2022-03-25 05:38:00,,0826.4,5.00,0.00,27.7,26.8,00.0,36.7,29.4,10.7,0000.0,0009.24,0003.61,0001.52
2022-03-25 05:39:00,,0826.3,5.00,0.00,27.7,26.8,00.0,36.7,29.4,10.6,0000.0,0009.25,0003.63,0001.50
2022-03-25 05:40:00,,0826.3,4.99,0.00,27.7,26.8,00.0,36.7,29.4,10.4,0000.0,0009.55,0003.74,0001.51
2022-03-25 05:41:00,,0826.4,5.02,0.00,27.7,26.8,00.0,36.7,29.4,10.3,0000.0,0009.87,0003.85,0001.54
2022-03-25 05:42:00,,0826.4,4.99,0.00,27.7,26.8,00.0,36.7,29.4,10.5,0000.0,0010.02,0003.93,0001.56
2022-03-25 05:43:00,,0826.4,4.99,0.00,27.7,26.8,00.0,36.7,29.4,10.5,0000.0,0010.11,0003.96,0001.57
2022-03-25 05:44:00,,0826.5,5.02,0.00,27.7,26.8,00.0,36.7,29.4,10.6,0000.0,0010.76,0003.96,0001.60
2022-03-25 05:45:00,,0826.5,4.99,0.00,27.7,26.8,00.0,36.7,29.4,10.7,0000.0,0010.95,0003.97,0001.63
2022-03-25 05:46:00,,0826.5,4.99,0.00,27.7,26.8,00.0,36.7,29.4,10.6,0000.0,0010.72,0003.94,0001.64
2022-03-25 05:47:00,,0826.5,5.01,0.00,27.7,26.8,00.0,36.7,29.4,10.6,0000.0,0010.19,0003.92,0001.65
2022-03-25 05:48:00,,0826.5,4.99,0.00,27.7,26.8,00.0,36.7,29.4,10.6,0000.0,0010.34,0003.91,0001.67
2022-03-25 05:49:00,,0826.5,4.99,0.00,27.7,26.9,00.0,36.7,29.4,10.6,0000.0,0010.59,0003.88,0001.68
2022-03-25 05:50:00,,0826.5,5.02,0.00,27.7,26.8,00.0,36.7,29.4,10.4,0000.0,0010.96,0003.97,0001.70
2022-03-25 05:51:00,,0826.5,4.99,0.00,27.7,26.8,00.0,36.7,29.4,10.5,0000.0,0011.16,0003.93,0001.71
2022-03-25 05:52:00,,0826.5,4.99,0.00,27.7,26.8,00.0,36.7,29.4,10.5,0000.0,0011.09,0003.83,0001.68
2022-03-25 05:53:00,,0826.5,5.00,0.00,27.7,26.8,00.0,36.7,29.4,10.6,0000.0,0010.92,0003.75,0001.66
2022-03-25 05:54:00,,0826.5,5.00,0.00,27.7,26.8,00.0,36.7,29.4,10.6,0000.0,0010.92,0003.75,0001.66
2022-03-25 05:55:00,,0826.5,4.99,0.00,27.7,26.8,00.0,36.7,29.4,10.5,0000.0,0010.46,0003.75,0001.65
2022-03-25 05:56:00,,0826.5,5.00,0.00,27.7,26.8,00.0,36.7,29.4,10.6,0000.0,0010.41,0003.78,0001.65
2022-03-25 05:57:00,,0826.5,5.00,0.00,27.7,26.9,00.0,36.7,29.5,10.6,0000.0,0010.99,0003.80,0001.63
2022-03-25 05:58:00,,0826.5,5.01,0.00,27.7,26.9,00.0,36.7,29.4,10.7,0000.0,0012.12,0003.89,0001.65
2022-03-25 05:59:00,,0826.5,5.00,0.00,27.7,26.9,00.0,36.7,29.4,10.7,0000.0,0012.07,0003.89,0001.64
